Location: Orinda
(37.8771°N, 122.1797°W)
Time: 20:39:47
(UTC+00:00)

Okean O Rocket - Pass Details

Date: 21 October 2019
Orbit: 622 x 645 km, 98.2° (Epoch: 17 November)

Event Time Altitude Azimuth Distance (km) Brightness Sun altitude
Rises 13:46:16 0° 10° (N) 2,936 5.1 -8.0°
Reaches altitude 10° 13:48:29 10° 8° (N) 2,020 4.2 -7.5°
Maximum altitude 13:52:51 72° 285° (WNW) 665 1.5 -6.7°
Drops below altitude 10° 13:57:10 10° 201° (SSW) 1,993 4.1 -5.8°
Sets 13:59:21 0° 199° (SSW) 2,892 4.9 -5.4°
